KUIPER-00222

导读 | 豆包AI

KUIPER-00222是亚马逊柯伊伯(Project Kuiper)低轨卫星互联网星座组网卫星,于2026年2月12日在法国通过阿丽亚娜6号火箭发射升空。作为亚马逊全球卫星互联网布局的组成部分,该卫星旨在和星座内数千颗卫星一同,为全球提供高速低延迟的宽带互联网接入,重点覆盖偏远区域等网络服务欠发达地区,推动全球网络普及。

Basic Information
目录编号:
67782
目录名称:
KUIPER-00222
国际标识:
2026-030U
轨道中心:
EARTH
卫星名称:
KUIPER-00222
卫星全名:
KUIPER-00222
卫星状态:
在轨 (已飞行102 天)
发射日期:
2026-02-12 UTC
国别 :
美国 (US)
星等 :
--
Orbit Information
数据来源 国际轨道数据
星历时间: 2026-05-24T07:04:05+0800
1天前
查看轨道信息
半长轴: 7007.978km
偏心率: 0.0000421
轨道倾角: 51.898°
近地点辐角 253.626°
升交点赤经 227.913°
平近点角 106.466°
近地点: 629.545km
远地点: 630.137km
周期: 97.308分钟
每日圈数: 14.798365
Detailed Information
使用方式:
暂无
2D Orbit Map
3D Orbit Map
Orbit Altitude Analysis Chart
Orbit Inclination Analysis Chart
Orbit Comprehensive Analysis Chart
View Comprehensive Chart